Torna al catalogo

FENGYUN 1C DEB

AttivoLEO
NORAD 30492·DEBRIS·🇨🇳 China

Lanciato May 10, 1999 da Taiyuan Satellite Launch Center

Loading…

Prossimi Passaggi (prossime 24 ore)

TLE

AggiornatoSource: Space-Track

Epoca: Sep 14, 2026, 08:51 UTC

1 30492U 99025AHE 26257.36941715  .00009912  00000-0  19651-2 0  9996
2 30492 102.3240  49.6247 0087627  51.2015 309.6954 14.60165007  9025

Traccia FENGYUN 1C DEB in tempo reale con AllMySat

Download on the App Store